{"data":{"norad_id":68313,"intl_designator":"2026-057V","name":"STARLINK-36815","alt_names":[],"object_type":"PAYLOAD","status":"ACTIVE","operator":null,"country":"US","launch_date":"2026-03-20","launch_site_code":"AFWTR","launch_vehicle":null,"mission":null,"orbit_class":"UNKNOWN","rcs_meters":null,"size_class":null,"mass_kg":null,"dimensions":null,"purposes":["comms"],"wikipedia_slug":null,"has_3d_model":false,"image_url":null,"decayed_at":null,"tle_current":{"epoch":"2026-05-24T21:03:15.861024Z","epoch_age_seconds":95765,"freshness":"FRESH","line1":"1 68313U 26057V   26144.87726691  .00284544  00000+0  18460-2 0  9991","line2":"2 68313  97.2848 271.1852 0001124 106.9655 253.1733 15.75185787 10286","mean_motion":15.75185787,"eccentricity":0.0001124,"inclination_deg":97.2848,"raan_deg":271.1852,"arg_perigee_deg":106.9655,"mean_anomaly_deg":253.1733,"bstar":0.001846,"rev_number":1028,"period_min":91.417787786324,"perigee_km":343.3469751573,"apogee_km":344.85813460924,"semimajor_km":6722.2395548833,"source":"CELESTRAK","updated_at":"2026-05-25T13:38:21.919737Z"}}}